Location: New York
(40.7140°N, 74.0060°W)
Time: 18:53:50
(UTC-05:00)

ISS - Visible Passes

Search period start: 07 February 2016 00:00
Search period end: 17 February 2016 00:00
Orbit: 399 x 408 km, 51.6° (Epoch: 07 February)

Date Brightness Start Highest point End Pass type
(mag) Time Alt. Az. Time Alt. Az. Time Alt. Az.
07 Feb -1.4 18:05:40 10° WNW 18:08:17 22° NNW 18:10:54 10° NNE visible
08 Feb -0.9 18:51:07 10° NW 18:52:46 13° N 18:53:30 12° N visible
09 Feb -1.0 17:57:49 10° NW 17:59:52 15° NNW 18:01:55 10° NNE visible
10 Feb -0.9 18:43:02 10° NNW 18:44:25 12° N 18:45:13 11° NNE visible
11 Feb -0.9 17:49:55 10° NW 17:51:26 13° N 17:52:58 10° NNE visible
11 Feb -0.5 19:26:51 10° NNW 19:27:22 12° NNW 19:27:22 12° NNW visible
12 Feb -1.0 18:34:20 10° NNW 18:35:59 13° N 18:36:54 12° NNE visible
13 Feb -1.1 19:17:42 10° NNW 19:19:05 18° N 19:19:05 18° N visible
14 Feb -1.3 18:25:12 10° NNW 18:27:24 17° NNE 18:28:39 14° NE visible
14 Feb 0.0 20:01:05 10° NW 20:01:18 11° NW 20:01:18 11° NW visible
15 Feb -2.3 19:08:28 10° NW 19:10:56 34° N 19:10:56 34° N visible
16 Feb -2.0 18:15:55 10° NW 18:18:40 25° NNE 18:20:39 15° ENE visible
16 Feb -0.6 19:52:07 10° WNW 19:53:18 20° WNW 19:53:18 20° WNW visible
